[[{"header":{"parameterUnit":"m.s-1","parameterCategory":1,"la1":30.2991,"la2":30.254,"lo1":-89.0895,"lo2":-89.0444,"dy":0.0017,"dx":0.0017,"nx":28,"ny":28,"refTime":"2024-03-15T03:00:00:Z","depth":0,"parameterNumber":2,"parameterNumberName":"U-component_of_WINDS"},"data":[0,0,0,0,0,0,0,0,0,0,0,0,0,0,0,0,0,0,0,0,0,0,0,0,0,0,0,0,0,0,0,0,0,0,0,0,0,0,0,0,0,0,0,0,0,0,0,0,0,0,0,0,0,0,0,0,0,0,-4.4551,-4.4552,0,-4.4621,-4.4622,-4.4623,-4.46,-4.4599,-4.4597,-4.4596,-4.4669,-4.4672,-4.4676,0,0,0,0,0,0,0,0,0,0,0,0,0,-4.4403,-4.4406,-4.4551,-4.4552,-4.4553,-4.4621,-4.4622,-4.4623,-4.46,-4.4599,-4.4597,-4.4595,-4.4668,-4.4672,-4.4676,0,0,0,0,0,0,0,0,0,0,0,0,0,-4.4469,-4.4406,-4.4551,-4.455,-4.4551,-4.4621,-4.4622,-4.4623,-4.4601,-4.4599,-4.4596,-4.4594,-4.4667,-4.4671,-4.4676,-4.4752,0,0,-4.4692,-4.4694,0,0,0,0,0,0,0,0,-4.4466,-4.4475,-4.4549,-4.455,-4.4551,-4.46,-4.4596,-4.4667,-4.4601,-4.4582,-4.4596,-4.4593,-4.4648,-4.4654,-4.4672,-4.4756,-4.4759,-4.4692,-4.4695,-4.4697,-4.4699,0,0,0,0,0,0,0,-4.4461,-4.4472,-4.4579,-4.455,-4.4551,-4.4547,-4.4554,-4.461,-4.4627,-4.4583,-4.4582,-4.459,-4.4648,-4.4668,-4.4674,-4.476,-4.4692,-4.4696,-4.47,-4.4702,-4.4913,-4.4916,0,0,0,0,0,0,-4.4456,-4.4468,-4.4577,-4.4581,-4.4502,-4.4552,-4.456,-4.4586,-4.4626,-4.463,-4.4592,-4.4589,-4.466,-4.4668,-4.4676,-4.4769,-4.4697,-4.4702,-4.4705,-4.491,-4.4914,-4.4916,0,0,0,0,0,0,-4.4452,-4.4465,-4.4574,-4.4524,-4.4538,-4.4557,-4.4587,-4.4589,-4.4608,-4.4633,-4.4636,-4.4609,-4.4659,-4.4669,-4.4734,-4.4771,-4.4704,-4.4709,-4.4907,-4.4911,-4.4915,-4.4955,0,0,0,0,0,0,-4.4448,-4.4464,-4.4492,-4.4525,-4.454,-4.4629,-4.4589,-4.4592,-4.4617,-4.4613,-4.4649,-4.4653,-4.4658,-4.4727,-4.4739,-4.4777,-4.4713,-4.4904,-4.4909,-4.4914,-4.495,-4.496,-4.4968,0,0,0,0,0,-4.4443,-4.45,-4.4493,-4.4507,-4.4575,-4.4631,-4.464,-4.4644,-4.462,-4.4649,-4.4665,-4.4652,-4.4766,-4.4734,-4.4747,-4.4787,-4.4902,-4.4908,-4.4913,-4.4946,-4.4958,-4.4968,0,0,0,0,0,0,-4.447,-4.4504,-4.4497,-4.4567,-4.4596,-4.4627,-4.4663,-4.4656,-4.4693,-4.4688,-4.4692,-4.4701,-4.4768,-4.4784,-4.4748,-4.4865,-4.483,-4.4839,-4.4851,-4.4862,-4.4871,-4.4864,-4.4717,0,0,0,0,0,-4.4485,-4.4527,-4.4554,-4.4613,-4.4628,-4.4644,-4.4668,-4.4669,-4.47,-4.4713,-4.4733,-4.4765,-4.4808,-4.4836,-4.4877,-4.4954,-4.4962,-4.4989,-4.4997,-4.5004,-4.5011,-4.5055,-4.5068,-4.4936,-4.4936,-4.4936,0,0,-4.4514,-4.4538,-4.4564,-4.4619,-4.4642,-4.4687,-4.4654,-4.4702,-4.4736,-4.472,-4.4782,-4.48,-4.4835,-4.4907,-4.494,-4.4923,-4.505,-4.5012,-4.5017,-4.502,-4.5063,-4.5075,-4.5086,-4.494,-4.4939,-4.4938,0,0,-4.459,-4.4612,-4.4664,-4.4689,-4.4725,-4.4736,-4.4748,-4.4782,-4.4792,-4.4856,-4.4846,-4.4887,-4.4961,-4.4987,-4.501,-4.5102,-4.5092,-4.5116,-4.516,-4.5203,-4.5213,-4.5223,-4.5256,-4.5268,-4.5123,-4.5123,-4.5123,0,-4.4622,-4.4688,-4.4692,-4.4742,-4.4767,-4.4757,-4.4811,-4.4835,-4.4882,-4.4901,-4.4882,-4.4977,-4.5,-4.5079,-4.5101,-4.512,-4.5136,-4.511,-4.5212,-4.5221,-4.523,-4.5261,-4.5274,-4.5126,-4.5126,-4.5125,-4.5125,0,-4.4726,-4.4772,-4.481,-4.4857,-4.4887,-4.4939,-4.4953,-4.4983,-4.4983,-4.4997,-4.5063,-4.5091,-4.5139,-4.5158,-4.5158,-4.5238,-4.5227,-4.521,-4.5175,-4.5245,-4.5275,-4.5287,-4.513,-4.5129,-4.5128,-4.5127,0,0,-4.4817,-4.4869,-4.4883,-4.4905,-4.4946,-4.4982,-4.5036,-4.5082,-4.5109,-4.5144,-4.5189,-4.5254,-4.524,-4.5266,-4.527,-4.5307,-4.538,-4.5286,-4.5287,-4.5303,-4.5472,-4.5483,-4.5497,-4.5375,-4.5377,-4.5379,-4.5469,0,-4.4897,-4.4988,-4.4996,-4.5078,-4.5122,-4.5115,-4.5162,-4.5193,-4.5208,-4.5249,-4.5267,-4.5313,-4.529,-4.5306,-4.5344,-4.5363,-4.5414,-4.5357,-4.5417,-4.5419,-4.5407,-4.5513,-4.5524,-4.5607,-4.548,-4.5482,-4.5484,0,-4.5,-4.5039,-4.5126,-4.5164,-4.5183,-4.5224,-4.5269,-4.5308,-4.5345,-4.5353,-4.5385,-4.5385,-4.5441,-4.5407,-4.5486,-4.5447,-4.5473,-4.5487,-4.549,-4.5495,-4.5454,-4.5519,-4.5634,-4.5646,-4.5502,-4.5501,-4.55,0,-4.5058,-4.5132,-4.5194,-4.5214,-4.526,-4.5289,-4.531,-4.5344,-4.5373,-4.5414,-4.5433,-4.548,-4.5505,-4.5542,-4.5556,-4.5529,-4.5635,-4.56,-4.5644,-4.5644,-4.5665,-4.5663,-4.5784,-4.5684,-4.5683,-4.5683,-4.5683,0,-4.5145,-4.5198,-4.5221,-4.5259,-4.5321,-4.5331,-4.5392,-4.5411,-4.5443,-4.5486,-4.5484,-4.5525,-4.554,-4.5585,-4.5596,-4.566,-4.5672,-4.5682,-4.5684,-4.5681,-4.568,-4.5696,-4.569,-4.5687,-4.5686,-4.5685,-4.5685,0,-4.5218,-4.5236,-4.5303,-4.5342,-4.5354,-4.5397,-4.5431,-4.5469,-4.5486,-4.5541,-4.5554,-4.558,-4.5632,-4.565,-4.5713,-4.5721,-4.5796,-4.5794,-4.5783,-4.5783,-4.5826,-4.5822,-4.5961,-4.5981,-4.5868,-4.5869,-4.587,0,-4.5271,-4.5313,-4.5357,-4.5386,-4.5408,-4.5454,-4.5484,-4.5498,-4.5529,-4.5577,-4.561,-4.5662,-4.5704,-4.5789,-4.5814,-4.5863,-4.5862,-4.5907,-4.5869,-4.5866,-4.5862,-4.5859,-4.5864,-4.5914,-4.5915,-4.5916,-4.5917,0,-4.5364,-4.5372,-4.5415,-4.5462,-4.5498,-4.5536,-4.5572,-4.5597,-4.5616,-4.5652,-4.5706,-4.5739,-4.5805,-4.5857,-4.5909,-4.5932,-4.5928,-4.5929,-4.5942,-4.5939,-4.5931,-4.5936,-4.5802,-4.5925,-4.5924,-4.5924,-4.5923,-4.5923,-4.5429,-4.5466,-4.5504,-4.5553,-4.5583,-4.5618,-4.5656,-4.5678,-4.5723,-4.5777,-4.5784,-4.5842,-4.5882,-4.595,-4.5977,-4.6024,-4.6011,-4.6029,-4.6033,-4.6037,-4.6041,-4.5925,-4.6033,-4.6033,-4.6033,-4.6033,-4.6032,0,-4.5521,-4.5546,-4.5592,-4.5643,-4.5683,-4.5677,-4.5719,-4.5752,-4.5803,-4.5841,-4.5883,-4.5947,-4.5999,-4.603,-4.6082,-4.6114,-4.6114,-4.6128,-4.6125,-4.613,-4.6049,-4.6033,-4.6127,-4.6127,-4.6127,-4.6127,-4.6127,-4.6127,-4.5574,-4.5637,-4.565,-4.573,-4.5755,-4.5811,-4.5836,-4.5869,-4.5899,-4.597,-4.6013,-4.6034,-4.607,-4.6126,-4.6174,-4.6182,-4.6201,-4.6216,-4.6223,-4.6146,-4.6136,-4.6126,-4.6111,-4.622,-4.622,-4.63,-4.6301,-4.6301]},{"header":{"parameterUnit":"m.s-1","parameterCategory":1,"la1":30.2991,"la2":30.254,"lo1":-89.0895,"lo2":-89.0444,"dy":0.0017,"dx":0.0017,"nx":28,"ny":28,"refTime":"2024-03-15T03:00:00:Z","depth":0,"parameterNumber":3,"parameterNumberName":"V-component_of_WINDS"},"data":[0,0,0,0,0,0,0,0,0,0,0,0,0,0,0,0,0,0,0,0,0,0,0,0,0,0,0,0,0,0,0,0,0,0,0,0,0,0,0,0,0,0,0,0,0,0,0,0,0,0,0,0,0,0,0,0,0,0,2.639,2.6389,0,2.6344,2.6343,2.6343,2.6367,2.6368,2.637,2.6371,2.6318,2.6316,2.6313,0,0,0,0,0,0,0,0,0,0,0,0,0,2.6497,2.6495,2.639,2.6389,2.6389,2.6344,2.6343,2.6343,2.6367,2.6368,2.637,2.6371,2.6319,2.6316,2.6313,0,0,0,0,0,0,0,0,0,0,0,0,0,2.645,2.6494,2.639,2.6395,2.6395,2.6344,2.6343,2.6342,2.6366,2.6368,2.637,2.6372,2.632,2.6316,2.6313,2.6251,0,0,2.6301,2.6299,0,0,0,0,0,0,0,0,2.6453,2.6446,2.6395,2.6395,2.6395,2.6363,2.6362,2.6312,2.6366,2.6377,2.6371,2.6373,2.6331,2.6327,2.6314,2.6249,2.6247,2.6301,2.6298,2.6297,2.6296,0,0,0,0,0,0,0,2.6456,2.6448,2.6371,2.6394,2.6394,2.64,2.6395,2.6353,2.6344,2.6376,2.6378,2.6373,2.6332,2.6317,2.6313,2.6246,2.6301,2.6297,2.6295,2.6293,2.6134,2.6132,0,0,0,0,0,0,2.646,2.6451,2.6373,2.637,2.6429,2.6396,2.6391,2.6371,2.6345,2.6343,2.6371,2.6374,2.6323,2.6317,2.6311,2.6241,2.6297,2.6293,2.6291,2.6135,2.6133,2.6131,0,0,0,0,0,0,2.6462,2.6452,2.6375,2.6411,2.6402,2.6393,2.637,2.6369,2.6355,2.6341,2.6339,2.6358,2.6324,2.6316,2.6268,2.6239,2.6291,2.6288,2.6138,2.6135,2.6132,2.6097,0,0,0,0,0,0,2.6465,2.6453,2.6429,2.641,2.64,2.6332,2.6368,2.6367,2.6349,2.6353,2.6328,2.6326,2.6325,2.6273,2.6264,2.6235,2.6285,2.614,2.6136,2.6133,2.6101,2.6093,2.6087,0,0,0,0,0,2.6468,2.6419,2.6428,2.6419,2.637,2.633,2.6324,2.6326,2.6347,2.6324,2.6315,2.6327,2.6244,2.6268,2.6258,2.6227,2.6142,2.6137,2.6133,2.6104,2.6095,2.6087,0,0,0,0,0,0,2.6432,2.6417,2.6426,2.637,2.6352,2.6335,2.6305,2.6315,2.6289,2.6293,2.6295,2.6289,2.6239,2.6228,2.6255,2.6169,2.6196,2.619,2.6177,2.6169,2.6162,2.6166,2.6282,0,0,0,0,0,2.6418,2.6388,2.6376,2.6327,2.6318,2.6313,2.6296,2.6299,2.628,2.6271,2.6259,2.6238,2.6209,2.6188,2.6159,2.61,2.6096,2.6074,2.6067,2.6062,2.6056,2.6027,2.6018,2.6117,2.6117,2.6117,0,0,2.6387,2.6375,2.6355,2.632,2.6306,2.6275,2.6306,2.627,2.6248,2.6265,2.622,2.621,2.6188,2.6135,2.6111,2.6124,2.6028,2.6056,2.6052,2.6049,2.6022,2.6012,2.6004,2.6114,2.6114,2.6115,0,0,2.6316,2.6303,2.6263,2.6251,2.6231,2.6229,2.622,2.6202,2.6198,2.6153,2.6167,2.6139,2.6086,2.6071,2.6056,2.5985,2.5996,2.5976,2.5939,2.5911,2.5904,2.5897,2.5873,2.5865,2.597,2.597,2.597,0,2.628,2.6234,2.6241,2.6206,2.6191,2.6209,2.6169,2.6156,2.6127,2.6116,2.6132,2.607,2.6055,2.6,2.5984,2.5971,2.5961,2.5978,2.5905,2.5898,2.5891,2.5869,2.586,2.5968,2.5968,2.5968,2.5968,0,2.6192,2.6161,2.6131,2.6107,2.6088,2.605,2.6052,2.6032,2.6039,2.6035,2.5991,2.5976,2.5946,2.5933,2.5937,2.588,2.5889,2.5905,2.5933,2.588,2.5859,2.585,2.5964,2.5965,2.5966,2.5966,0,0,2.6093,2.6077,2.6066,2.6057,2.6039,2.6015,2.598,2.5953,2.5938,2.5918,2.5889,2.5847,2.5863,2.5846,2.5849,2.5825,2.5773,2.5844,2.5844,2.5833,2.5712,2.5701,2.5691,2.5781,2.578,2.5778,2.5715,0,2.6022,2.5962,2.5969,2.5912,2.5885,2.5905,2.5874,2.586,2.5857,2.5833,2.583,2.5801,2.5823,2.5814,2.579,2.5784,2.5749,2.5789,2.5754,2.5753,2.576,2.568,2.5666,2.5607,2.5706,2.5705,2.5704,0,2.593,2.5912,2.5853,2.5844,2.5833,2.5805,2.5784,2.5761,2.5747,2.5747,2.5731,2.574,2.5705,2.5735,2.5688,2.5716,2.5702,2.5698,2.5696,2.5692,2.5725,2.5675,2.5588,2.5579,2.5691,2.5692,2.5693,0,2.5866,2.5826,2.5787,2.5779,2.5766,2.5747,2.5741,2.5729,2.5714,2.5695,2.5686,2.5663,2.565,2.5632,2.5634,2.5656,2.5588,2.5617,2.5587,2.5587,2.557,2.5571,2.5481,2.5561,2.5561,2.5562,2.5562,0,2.5786,2.575,2.5759,2.5734,2.5695,2.5705,2.5665,2.5661,2.5651,2.5627,2.5642,2.5618,2.5623,2.56,2.5602,2.5565,2.5558,2.5557,2.5558,2.5556,2.5556,2.5547,2.5551,2.5559,2.556,2.556,2.5561,0,2.5707,2.5712,2.5671,2.5665,2.5662,2.5634,2.5628,2.5606,2.5606,2.5576,2.5569,2.5569,2.5543,2.5545,2.5514,2.5516,2.547,2.5475,2.5475,2.5477,2.5447,2.545,2.5347,2.5335,2.5423,2.5422,2.5421,0,2.5656,2.5629,2.5622,2.5608,2.5602,2.5578,2.5565,2.5574,2.5559,2.5544,2.5524,2.55,2.5481,2.5439,2.5436,2.5414,2.5419,2.5385,2.5415,2.5416,2.542,2.5422,2.542,2.5378,2.5377,2.5377,2.5376,0,2.5565,2.557,2.5551,2.5534,2.5518,2.5504,2.5492,2.5479,2.5488,2.547,2.5446,2.5432,2.5404,2.5381,2.5361,2.5354,2.5366,2.5367,2.5359,2.5356,2.5358,2.5358,2.546,2.5369,2.5369,2.537,2.537,2.5371,2.5499,2.5478,2.5471,2.545,2.5443,2.5432,2.5412,2.5412,2.5392,2.5372,2.5379,2.5351,2.5341,2.5316,2.5308,2.5287,2.5299,2.5287,2.5284,2.5281,2.5279,2.5362,2.5283,2.5283,2.5284,2.5284,2.5284,0,2.541,2.5408,2.5389,2.5374,2.5358,2.5375,2.5363,2.5349,2.5325,2.5316,2.5299,2.5273,2.5252,2.5249,2.5229,2.5212,2.5218,2.5207,2.5208,2.5207,2.5268,2.5278,2.5203,2.5203,2.5203,2.5203,2.5203,2.5203,2.5362,2.5328,2.5333,2.5297,2.5294,2.527,2.5262,2.5253,2.5246,2.5217,2.5201,2.52,2.5194,2.5174,2.5156,2.5156,2.5148,2.5135,2.5137,2.5194,2.5202,2.521,2.5219,2.5133,2.5133,2.5078,2.5077,2.5077]}]]